TimeEST,TemperatureF,Dew PointF,Humidity,Sea Level PressureIn,VisibilityMPH,Wind Direction,Wind SpeedMPH,Gust SpeedMPH,PrecipitationIn,Events,Conditions,WindDirDegrees,DateUTC
12:15 AM,42.8,37.4,81,30.24,10.0,Calm,Calm,-,N/A,,Clear,0,2013-03-08 05:15:00
12:35 AM,44.6,37.4,76,30.24,10.0,Calm,Calm,-,N/A,,Clear,0,2013-03-08 05:35:00
12:55 AM,42.8,37.4,81,30.23,10.0,Calm,Calm,-,N/A,,Clear,0,2013-03-08 05:55:00
1:15 AM,42.8,37.4,81,30.23,10.0,Calm,Calm,-,N/A,,Clear,0,2013-03-08 06:15:00
1:35 AM,42.8,37.4,81,30.22,10.0,Calm,Calm,-,N/A,,Clear,0,2013-03-08 06:35:00
1:55 AM,42.8,37.4,81,30.22,10.0,Calm,Calm,-,N/A,,Clear,0,2013-03-08 06:55:00
2:15 AM,42.8,37.4,81,30.22,10.0,Calm,Calm,-,N/A,,Clear,0,2013-03-08 07:15:00
2:55 AM,42.8,37.4,81,30.20,10.0,North,3.5,-,N/A,,Clear,350,2013-03-08 07:55:00
3:15 AM,42.8,39.2,87,30.20,10.0,Calm,Calm,-,N/A,,Clear,0,2013-03-08 08:15:00
3:35 AM,42.8,37.4,81,30.19,10.0,NNE,3.5,-,N/A,,Clear,20,2013-03-08 08:35:00
3:55 AM,42.8,39.2,87,30.20,10.0,Calm,Calm,-,N/A,,Clear,0,2013-03-08 08:55:00
4:15 AM,42.8,39.2,87,30.19,7.0,Calm,Calm,-,N/A,,Clear,0,2013-03-08 09:15:00
4:35 AM,42.8,39.2,87,30.19,7.0,North,4.6,-,N/A,,Clear,360,2013-03-08 09:35:00
4:55 AM,41.0,37.4,87,30.20,7.0,North,4.6,-,N/A,,Clear,360,2013-03-08 09:55:00
5:15 AM,41.0,37.4,87,30.20,7.0,Calm,Calm,-,N/A,,Clear,0,2013-03-08 10:15:00
5:35 AM,41.0,37.4,87,30.21,7.0,Calm,Calm,-,N/A,,Clear,0,2013-03-08 10:35:00
6:50 AM,41.0,39.2,93,30.22,7.0,Calm,Calm,-,N/A,,Clear,0,2013-03-08 11:50:00
7:50 AM,44.6,41.0,87,30.24,7.0,North,3.5,-,N/A,,Clear,10,2013-03-08 12:50:00
8:50 AM,51.8,42.8,71,30.25,7.0,NE,4.6,-,N/A,,Clear,40,2013-03-08 13:50:00
9:50 AM,62.6,37.4,39,30.25,7.0,ENE,5.8,-,N/A,,Clear,70,2013-03-08 14:50:00
10:50 AM,-9999,33.8,N/A,30.24,7.0,North,5.8,-,N/A,,Clear,10,2013-03-08 15:50:00
11:58 AM,68.0,33.8,28,30.22,10.0,North,3.5,-,N/A,,Clear,360,2013-03-08 16:58:00
12:50 PM,69.8,32.0,25,30.20,10.0,Calm,Calm,-,N/A,,Clear,0,2013-03-08 17:50:00
1:50 PM,73.4,30.2,20,30.17,15.0,Calm,Calm,-,N/A,,Clear,0,2013-03-08 18:50:00
2:52 PM,75.2,26.6,17,30.14,12.0,NNE,8.1,-,N/A,,Clear,30,2013-03-08 19:52:00
3:50 PM,77.0,26.6,16,30.14,12.0,NNW,8.1,-,N/A,,Clear,340,2013-03-08 20:50:00
4:51 PM,75.2,26.6,17,30.13,12.0,NNW,4.6,-,N/A,,Clear,340,2013-03-08 21:51:00
5:50 PM,73.4,24.8,16,30.14,10.0,NNW,4.6,-,N/A,,Scattered Clouds,340,2013-03-08 22:50:00
6:50 PM,69.8,30.2,23,30.16,10.0,Calm,Calm,-,N/A,,Scattered Clouds,0,2013-03-08 23:50:00
7:55 PM,62.6,35.6,37,30.18,10.0,NW,5.8,-,N/A,,Clear,310,2013-03-09 00:55:00
8:50 PM,57.2,39.2,51,30.20,10.0,NNW,5.8,-,N/A,,Clear,340,2013-03-09 01:50:00
9:50 PM,55.4,39.2,54,30.22,10.0,Calm,Calm,-,N/A,,Clear,0,2013-03-09 02:50:00
9:55 PM,53.6,39.2,58,30.21,10.0,Calm,Calm,-,N/A,,Clear,0,2013-03-09 02:55:00
10:15 PM,51.8,39.2,62,30.22,10.0,Calm,Calm,-,N/A,,Clear,0,2013-03-09 03:15:00
10:35 PM,53.6,39.2,58,30.22,10.0,Calm,Calm,-,N/A,,Clear,0,2013-03-09 03:35:00
10:55 PM,51.8,39.2,62,30.22,10.0,Calm,Calm,-,N/A,,Clear,0,2013-03-09 03:55:00
11:15 PM,51.8,41.0,67,30.21,10.0,Calm,Calm,-,N/A,,Clear,0,2013-03-09 04:15:00
11:55 PM,50.0,41.0,71,30.23,10.0,Calm,Calm,-,N/A,,Clear,0,2013-03-09 04:55:00